Weather History for Kalamazoo, MI

Change the Weather History Date:

Wednesday, October 16, 2013

  Actual Average Record
Temperature  
Mean Temperature 55 °F 51 °F  
Max Temperature 62 °F 60 °F 83 °F (1963)
Min Temperature 47 °F 41 °F 31 °F (2012)
Degree Days  
Heating Degree Days 10 14  
Month to date heating degree days 104 194  
Since 1 July heating degree days 260 343  
Cooling Degree Days 0 0  
Month to date cooling degree days 16 7  
Year to date cooling degree days 725 674  
Growing Degree Days 4 (Base 50)    
Moisture  
Dew Point 48 °F    
Average Humidity 85    
Maximum Humidity 93    
Minimum Humidity 77    
Precipitation  
Precipitation 0.02 in 0.11 in 1.26 in (1957)
Month to date precipitation 1.45 1.71  
Year to date precipitation 32.27 29.12  
Sea Level Pressure  
Sea Level Pressure 29.88 in    
Wind  
Wind Speed 9 mph (SW)    
Max Wind Speed 17 mph    
Max Gust Speed 22 mph    
Visibility 8 miles    
Events Rain    
T = Trace of Precipitation, MM = Missing Value Source: NWS Daily Summary

Daily Weather History Graph

Daily Weather History Graph

Search for Another Location

Airport:

Trip Planner

Search our weather history database for the weather conditions in past years. The results will help you decide how hot, cold, wet, or windy it might be!

Date:

Astronomy

Oct. 16, 2013 Rise Set
Actual Time 7:56 AM EDT 6:58 PM EDT
Civil Twilight 7:28 AM EDT 7:26 PM EDT
Nautical Twilight 6:55 AM EDT 7:59 PM EDT
Astronomical Twilight 6:23 AM EDT 8:31 PM EDT
Moon 5:39 PM EDT (10/16) 5:21 AM EDT (10/16)
Length of Visible Light 11h 58m
Length of Day
11h 01m
Waxing Gibbous, 94% of the Moon is Illuminated
Oct 16
Waxing Gibbous
Oct 18
Full
Oct 26
Last Quarter
Nov 3
New
Nov 10
First Quarter

Hourly Weather History & Observations

Time (EDT) Temp. Dew Point Humidity Pressure Visibility Wind Dir Wind Speed Gust Speed Precip Events Conditions
12:35 AM 62.6 °F 59.0 °F 88% 29.83 in 10.0 mi SSW 11.5 mph - N/A   Mostly Cloudy
12:53 AM 62.1 °F 59.0 °F 90% 29.83 in 10.0 mi SSW 9.2 mph - 0.01 in   Mostly Cloudy
1:18 AM 62.6 °F 59.0 °F 88% 29.83 in 10.0 mi WSW 11.5 mph - N/A   Overcast
1:40 AM 59.0 °F 53.6 °F 82% 29.84 in 10.0 mi WNW 12.7 mph - N/A   Overcast
1:53 AM 57.9 °F 53.1 °F 84% 29.85 in 10.0 mi West 8.1 mph - N/A   Mostly Cloudy
2:01 AM 57.2 °F 53.6 °F 88% 29.85 in 10.0 mi West 6.9 mph - N/A   Mostly Cloudy
2:53 AM 55.9 °F 51.1 °F 84% 29.86 in 10.0 mi West 6.9 mph - N/A   Mostly Cloudy
3:11 AM 55.4 °F 48.2 °F 77% 29.86 in 10.0 mi West 8.1 mph - N/A   Mostly Cloudy
3:53 AM 54.0 °F 46.9 °F 77% 29.85 in 10.0 mi WSW 3.5 mph - N/A   Clear
4:53 AM 50.0 °F 46.0 °F 86% 29.84 in 10.0 mi SW 5.8 mph - N/A   Clear
5:53 AM 48.9 °F 45.0 °F 86% 29.85 in 10.0 mi SW 6.9 mph - N/A   Clear
6:53 AM 48.9 °F 44.1 °F 83% 29.85 in 10.0 mi SW 6.9 mph - N/A   Clear
7:53 AM 46.9 °F 43.0 °F 86% 29.86 in 10.0 mi SW 6.9 mph - N/A   Scattered Clouds
8:22 AM 48.2 °F 44.6 °F 87% 29.86 in 10.0 mi SSW 9.2 mph - N/A   Mostly Cloudy
8:53 AM 48.9 °F 44.1 °F 83% 29.87 in 10.0 mi SW 5.8 mph - N/A   Overcast
9:53 AM 50.0 °F 44.1 °F 80% 29.88 in 10.0 mi SW 11.5 mph - N/A   Overcast
10:53 AM 50.0 °F 44.1 °F 80% 29.87 in 10.0 mi SW 13.8 mph - N/A   Overcast
11:53 AM 50.0 °F 44.1 °F 80% 29.89 in 10.0 mi SSW 12.7 mph - N/A   Overcast
12:53 PM 50.0 °F 44.1 °F 80% 29.89 in 10.0 mi SSW 13.8 mph - N/A   Overcast
1:23 PM 48.2 °F 44.6 °F 87% 29.89 in 4.0 mi SSW 11.5 mph - N/A   Overcast
1:53 PM 48.9 °F 45.0 °F 86% 29.89 in 3.0 mi SW 11.5 mph - N/A   Overcast
2:30 PM 50.0 °F 46.4 °F 87% 29.88 in 2.5 mi SW 10.4 mph - N/A   Overcast
2:53 PM 50.0 °F 46.0 °F 86% 29.88 in 2.5 mi SW 15.0 mph - N/A   Overcast
3:14 PM 50.0 °F 46.4 °F 87% 29.87 in 2.5 mi SW 10.4 mph - N/A   Overcast
3:53 PM 50.0 °F 46.9 °F 89% 29.88 in 2.5 mi SW 11.5 mph - N/A   Overcast
4:53 PM 50.0 °F 48.0 °F 93% 29.89 in 2.5 mi SW 8.1 mph - 0.00 in Rain Light Rain
5:53 PM 50.0 °F 48.0 °F 93% 29.90 in 2.5 mi SW 8.1 mph - 0.00 in Rain Light Rain
6:53 PM 50.0 °F 46.9 °F 89% 29.90 in 2.5 mi SSW 8.1 mph - 0.01 in Rain Light Rain
7:50 PM 50.0 °F 46.4 °F 87% 29.90 in 3.0 mi SSW 9.2 mph - 0.01 in   Overcast
7:53 PM 50.0 °F 46.9 °F 89% 29.92 in 3.0 mi SW 9.2 mph - 0.01 in   Overcast
8:53 PM 50.0 °F 46.9 °F 89% 29.92 in 3.0 mi SSW 9.2 mph - 0.00 in Rain Light Rain
9:05 PM 50.0 °F 46.4 °F 87% 29.91 in 10.0 mi SW 9.2 mph - 0.00 in   Overcast
9:36 PM 50.0 °F 46.4 °F 87% 29.92 in 10.0 mi SW 8.1 mph - 0.00 in   Overcast
9:49 PM 50.0 °F 46.4 °F 87% 29.92 in 10.0 mi SW 6.9 mph - 0.00 in   Overcast
9:53 PM 50.0 °F 46.9 °F 89% 29.94 in 10.0 mi SW 8.1 mph - 0.00 in   Overcast
10:53 PM 50.0 °F 46.9 °F 89% 29.94 in 10.0 mi SSW 5.8 mph - N/A   Overcast
11:24 PM 50.0 °F 46.4 °F 87% 29.92 in 10.0 mi SSW 8.1 mph - N/A   Overcast
11:43 PM 50.0 °F 46.4 °F 87% 29.92 in 9.0 mi SSW 9.2 mph - N/A   Overcast
11:53 PM 50.0 °F 46.9 °F 89% 29.93 in 10.0 mi SSW 8.1 mph - N/A   Overcast